Regional Weather Roundup
Issued by NWS Green Bay, WI

Home | Current Version | Previous Version | Graphics & Text | Print | Product List | Glossary Off
Versions: 1 2 3 4 5 6 7 8 9 10 11 12 13 14 15 16 17 18 19 20 21 22 23 24 25 26 27 28 29 30 31 32 33 34 35 36 37 38 39 40 41 42 43 44 45 46 47 48 49 50

000
ASUS43 KGRB 220310
RWRGRB

NORTH-CENTRAL AND NORTHEAST WISCONSIN REGIONAL WEATHER ROUNDUP
NATIONAL WEATHER SERVICE GREEN BAY WI
900 PM CST SUN DEC 21 2014

WIZ005-009-010>012-018-019-220400-
NORTH CENTRAL WISCONSIN

CITY           SKY/WX    TMP DP  RH WIND       PRES   REMARKS
IRONWOOD       CLOUDY    34  32  93 S9        29.77S
MANITOWISH WTR LGT SNOW  32  32 100 S8        29.81S
ARBOR VITAE    LGT SNOW  34  32  93 S8G17     29.81F
EAGLE RIVER    LGT SNOW  32  32 100 S7        29.83S
LAND O LAKES   LGT SNOW  33  32  98 S8        29.84S
RHINELANDER    LGT SNOW  32  30  92 S8        29.84F FOG
PHILLIPS       FLURRIES  33  32  97 S13       29.80S
ANTIGO         CLOUDY    32  32 100 S13       29.88S FOG
TOMAHAWK       LGT RAIN  32  31  98 CALM      29.84S
MERRILL        LGT SNOW  33  33 100 S7        29.86S
$$

WIZ013-073-220400-
NORTHEAST WISCONSIN

CITY           SKY/WX    TMP DP  RH WIND       PRES   REMARKS
IRON MOUNTAIN  LGT SNOW  33  31  92 S15G22    29.90F FOG
MARINETTE      CLOUDY    36  32  87 S10       29.98F
OCONTO         CLOUDY    35  32  90 S9        29.98F
$$

WIZ017-030-035>037-045-220400-
CENTRAL WISCONSIN

CITY           SKY/WX    TMP DP  RH WIND       PRES   REMARKS
MEDFORD        CLOUDY    32  32  99 SE14      29.82F FOG
WAUSAU         CLOUDY    34  32  92 S16       29.86F FOG
MOSINEE        CLOUDY    34  34 100 SE14G21   29.82F FOG
MARSHFIELD     MIX PCPN  35  33  92 S13       29.85S FOG
WISC RAPIDS    CLOUDY    35  32  88 S10G20    29.90S FOG
STEVENS POINT  LGT RAIN  32  32  99 S10G18    29.90S
WAUPACA        CLOUDY    37  32  83 S13       29.94S
SHAWANO        CLOUDY    37  32  82 S9        29.95S
CLINTONVILLE   CLOUDY    34  32  93 S10       29.94S
$$

WIZ038-039-048-051-220400-
FOX VALLEY

CITY           SKY/WX    TMP DP  RH WIND       PRES   REMARKS
NWS GREEN BAY  CLOUDY    36  30  79 S20       29.97F
APPLETON       CLOUDY    34  30  86 S14       29.96F
OSHKOSH        CLOUDY    35  29  78 S13       29.96F
FOND DU LAC    CLOUDY    35  29  78 S14       29.97F
$$

WIZ022-050-052-220400-
EAST CENTRAL WISCONSIN

CITY           SKY/WX    TMP DP  RH WIND       PRES   REMARKS
STURGEON BAY   CLOUDY    36  32  87 S16       30.01F
MANITOWOC      CLOUDY    37  34  89 S18       30.02F
SHEBOYGAN      CLOUDY    35  30  82 S16       30.02F
$$

LMZ563-521-522-541>543-220400-
LAKESHORE

STATION/POSITION TIME  TEMP    WIND        PRES    VSBY  WAVE
                       AIR SEA DIR/SP/G                  HT/PER
                 (UTC) (F)     (DEG/KT/KT) (MB)    (MI)  (FT/S)
SHEBOYGAN LKSHOR 0300   38 36  180/ 25/ 27 1017.1F
KEWAUNEE LKSHORE 0300   37     180/ 18/ 21 1015.7F
ALGOMA MARINA    0300          220/ 26/ 30   N/A
NORTHPORT PIER   0300   36     160/ 13/ 19 1016.3F
SISTER BAY LKSHO 0200          140/ 14/ 19   N/A
CHAMBERS ISLAND  0300   37     150/  9/ 15 1015.9S
MENOMINEE LKSHOR 0300   36     150/ 19/ 25 1015.6F
$$


USA.gov is the U.S. government's official web portal to all federal, state and local government web resources and services.